Snowfall_Accumulation
0.2 1.5 3.9 1.6 1.3 1.6 1.8 1.6 1.2 0.7 0.4 0.6 0.6 0.4 0.1 0.1 0.0 0.0 0.1 0.1 0.0 0.0 0.0 0.0 0.0 0.0 0.0 0.0 0.0 0.0 0.0 0.0 0.0 0.0 0.0 0.0 0.0 0.0 0.0 0.0 0.0 0.0 0.0 0.0
2.1 3.7 0.8 0.4 0.6 1.5 2.4 2.7 1.5 0.7 0.3 0.4 0.7 0.6 0.1 0.1 0.0 0.0 0.0 0.0 0.0 0.0 0.0 0.0 0.0 0.0 0.0 0.0 0.0 0.0 0.0 0.0 0.0 0.0 0.0 0.0 0.0 0.0 0.0 0.0 0.0 0.0 0.0 0.0
4.5 1.5 0.3 0.6 1.8 3.1 2.8 2.5 2.1 1.3 0.8 0.5 0.7 1.0 0.3 0.1 0.0 0.0 0.0 0.0 0.0 0.0 0.0 0.0 0.0 0.0 0.0 0.0 0.0 0.0 0.0 0.0 0.0 0.0 0.0 0.0 0.0 0.0 0.0 0.0 0.0 0.0 0.0 0.0
2.4 0.5 0.3 1.0 1.7 2.6 2.9 1.0 1.4 1.5 2.4 2.7 1.7 3.8 1.3 0.3 0.1 0.0 0.0 0.0 0.0 0.0 0.0 0.0 0.0 0.0 0.0 0.0 0.0 0.0 0.0 0.0 0.0 0.0 0.0 0.0 0.0 0.0 0.0 0.0 0.0 0.0 0.0 0.0
3.7 0.8 0.7 1.8 0.8 1.3 2.1 0.4 1.3 2.4 3.2 4.3 1.4 3.1 1.8 0.7 0.5 0.4 0.1 0.0 0.0 0.0 0.0 0.0 0.0 0.0 0.0 0.0 0.0 0.0 0.0 0.0 0.0 0.0 0.0 0.0 0.0 0.0 0.0 0.0 0.0 0.0 0.0 0.0
1.3 0.2 0.4 0.6 0.1 0.4 0.9 0.5 1.0 1.9 4.5 8.1 2.3 2.9 2.2 1.8 2.0 1.0 0.1 0.1 0.1 0.1 0.1 0.0 0.0 0.0 0.0 0.0 0.0 0.0 0.0 0.0 0.0 0.0 0.0 0.0 0.0 0.0 0.0 0.0 0.0 0.0 0.0 0.0
6.8 2.5 0.5 0.1 1.5 1.0 2.5 8.7 15.7 15.2 12.5 5.9 1.2 2.2 1.9 0.7 0.2 0.1 0.2 0.1 0.1 0.1 0.1 0.0 0.0 0.0 0.0 0.0 0.0 0.0 0.0 0.0 0.0 0.0 0.0 0.0 0.0 0.0 0.0 0.0 0.0 0.0 0.0 0.0
9.6 8.8 1.9 0.3 0.7 2.6 3.0 6.1 11.5 10.2 6.2 2.9 1.5 1.9 1.7 0.1 0.0 0.0 0.1 0.1 0.0 0.0 0.0 0.0 0.0 0.0 0.0 0.0 0.0 0.0 0.0 0.0 0.0 0.0 0.0 0.0 0.0 0.0 0.0 0.0 0.0 0.0 0.0 0.0
6.9 7.2 0.7 0.1 0.1 0.6 4.0 5.1 4.1 8.2 5.7 3.3 1.8 1.1 0.4 0.0 0.0 0.0 0.0 0.1 0.0 0.0 0.0 0.0 0.1 0.0 0.0 0.0 0.0 0.0 0.0 0.0 0.0 0.0 0.0 0.0 0.0 0.0 0.0 0.0 0.0 0.0 0.0 0.0
4.7 7.7 3.0 0.1 0.3 0.2 0.6 1.9 6.2 11.1 9.0 4.9 1.7 1.0 1.5 1.5 0.8 0.2 0.0 0.0 0.0 0.0 0.0 0.0 0.0 0.0 0.0 0.0 0.0 0.0 0.0 0.0 0.0 0.0 0.0 0.0 0.0 0.0 0.0 0.0 0.0 0.0 0.0 0.0
2.7 8.8 6.7 3.0 4.5 3.7 2.8 5.2 7.6 8.8 6.7 5.9 3.6 2.3 1.6 1.1 0.8 0.2 0.0 0.0 0.0 0.0 0.0 0.0 0.0 0.0 0.0 0.0 0.0 0.0 0.0 0.0 0.0 0.0 0.0 0.0 0.0 0.0 0.0 0.0 0.0 0.0 0.0 0.0
2.4 7.6 8.4 4.0 0.1 0.1 1.3 3.3 5.5 9.6 7.0 4.9 4.3 3.1 0.1 0.3 0.1 0.0 0.0 0.0 0.0 0.0 0.0 0.0 0.0 0.0 0.0 0.0 0.0 0.0 0.0 0.0 0.0 0.0 0.0 0.0 0.0 0.0 0.0 0.0 0.0 0.0 0.0 0.0
1.9 7.6 9.6 5.5 1.8 0.7 3.3 2.3 3.0 5.9 9.0 7.4 5.9 3.6 0.1 0.1 0.1 0.0 0.0 0.0 0.0 0.0 0.0 0.0 0.0 0.0 0.0 0.0 0.0 0.0 0.0 0.0 0.0 0.0 0.0 0.0 0.0 0.0 0.0 0.0 0.0 0.0 0.0 0.0
0.6 5.7 7.1 6.4 4.4 4.2 4.8 3.4 3.2 8.0 11.1 6.7 4.2 3.5 1.7 0.6 0.5 0.3 0.0 0.0 0.0 0.1 0.0 0.1 0.0 0.0 0.0 0.0 0.0 0.0 0.0 0.0 0.0 0.0 0.0 0.0 0.0 0.0 0.0 0.0 0.0 0.0 0.0 0.0
1.0 6.8 4.7 3.0 1.2 2.0 2.7 2.1 2.2 5.2 5.9 6.8 3.8 2.6 1.5 0.8 0.7 0.3 0.0 0.0 0.1 0.1 0.1 0.0 0.0 0.1 0.1 0.0 0.0 0.0 0.0 0.0 0.0 0.1 0.0 0.0 0.0 0.1 0.0 0.1 0.2 0.2 0.0 0.0
1.3 4.3 4.8 3.1 1.0 1.4 2.0 1.1 1.2 2.2 2.3 3.6 2.8 2.0 0.3 0.3 0.1 0.1 0.1 0.1 0.1 0.2 0.1 0.0 0.1 0.3 0.4 0.4 0.4 0.4 0.0 0.1 0.1 0.1 0.1 0.1 0.1 0.1 0.1 0.3 0.3 0.0 0.3 0.3
1.3 3.1 5.8 4.0 1.0 1.8 3.4 0.9 1.1 1.6 1.4 2.2 3.1 1.8 0.3 0.5 0.3 0.1 0.1 0.1 0.1 0.2 0.1 0.0 0.1 0.1 0.0 0.2 0.2 0.3 0.4 0.3 0.1 0.1 0.1 0.2 0.2 0.1 0.1 0.1 0.4 0.2 0.5 0.5
1.0 2.5 5.0 4.2 2.8 3.8 1.0 0.1 0.3 0.8 1.1 1.0 1.1 0.5 0.3 0.2 0.2 0.1 0.1 0.2 0.1 0.1 0.3 0.0 0.0 0.1 0.1 0.1 0.1 0.1 0.2 0.3 0.4 0.1 0.2 0.2 0.3 0.4 0.5 0.8 1.0 1.2 1.1 1.2
0.3 1.1 5.0 4.9 3.8 2.1 0.3 0.2 0.2 0.6 1.2 0.5 0.4 0.3 0.1 0.1 0.0 0.0 0.1 0.0 0.1 0.1 0.1 0.0 0.1 0.1 0.1 0.1 0.1 0.1 0.1 0.2 0.3 0.8 0.7 0.9 0.9 0.8 1.4 1.8 1.8 1.7 1.5 1.6
0.3 0.7 3.8 4.6 4.1 2.4 0.9 0.2 0.1 0.4 1.6 0.3 0.2 0.3 0.2 0.2 0.6 0.6 0.2 0.0 0.0 0.0 0.1 0.1 0.1 0.1 0.1 0.1 0.1 0.1 0.4 0.4 0.6 0.8 0.9 0.7 1.0 1.1 1.3 1.8 1.7 1.8 1.9 1.9
1.4 2.4 3.8 3.6 3.4 1.4 0.6 0.2 0.2 1.4 4.1 0.5 0.4 0.4 0.5 0.5 0.8 0.4 0.1 0.2 0.1 0.1 0.1 0.1 0.1 0.2 0.4 0.2 0.2 0.5 0.9 0.9 0.9 0.9 0.7 0.9 0.7 1.1 1.2 1.2 1.6 1.2 1.8 1.6
1.1 1.7 1.8 1.8 2.7 1.5 0.4 0.7 1.3 1.2 0.5 0.3 0.3 0.3 0.4 0.3 0.1 0.1 0.1 0.0 0.1 0.2 0.2 0.3 0.3 0.4 0.8 0.2 0.5 1.2 1.3 1.3 1.4 1.1 1.1 1.0 1.0 1.0 0.8 0.9 1.1 1.2 0.9 0.6
1.0 1.3 1.3 1.3 1.4 0.6 0.5 0.8 0.8 0.7 0.7 0.5 0.3 0.2 0.2 0.2 0.1 0.2 0.2 0.1 0.0 0.0 0.1 0.2 0.3 0.4 0.3 0.6 0.7 1.4 1.7 1.7 1.2 1.3 1.3 1.0 0.9 0.7 0.7 0.6 0.4 0.5 0.5 0.5
0.7 0.5 0.8 1.0 0.8 0.6 0.6 0.6 0.7 0.8 0.5 0.0 0.1 0.1 0.1 0.1 0.1 0.1 0.1 0.1 0.1 0.0 0.0 0.1 0.2 0.2 0.4 0.4 0.6 0.7 0.8 0.6 0.3 0.5 0.6 0.6 0.4 0.3 0.3 0.3 0.2 0.2 0.3 0.4
0.6 0.6 0.9 1.0 0.5 0.3 0.2 0.2 0.2 0.2 0.0 0.0 0.0 0.0 0.0 0.0 0.1 0.1 0.1 0.1 0.1 0.1 0.1 0.1 0.1 0.1 0.1 0.2 0.3 0.1 0.2 0.2 0.2 0.2 0.2 0.2 0.2 0.3 0.1 0.1 0.2 0.3 0.2 0.4
0.4 0.7 1.2 1.1 0.3 0.4 0.2 0.0 0.0 0.1 0.1 0.0 0.0 0.0 0.0 0.0 0.0 0.1 0.1 0.1 0.1 0.0 0.1 0.1 0.1 0.2 0.2 0.2 0.2 0.3 0.2 0.3 0.3 0.2 0.2 0.1 0.2 0.2 0.1 0.2 0.2 0.2 0.1 0.1